{"data":{"norad_id":40895,"epoch":"2026-09-20T03:10:05.994048Z","epoch_age_seconds":53687,"freshness":"FRESH","line1":"1 40895U 15048A   26263.13201382 -.00000115  00000+0  00000+0 0  9999","line2":"2 40895   0.0178 202.3402 0000429 245.5010 304.7263  1.00272176 40295","mean_motion":1.00272176,"eccentricity":4.29e-5,"inclination_deg":0.0178,"raan_deg":202.3402,"arg_perigee_deg":245.501,"mean_anomaly_deg":304.7263,"bstar":0,"rev_number":4029,"period_min":1436.0913041321,"perigee_km":35784.676487754,"apogee_km":35788.294212352,"semimajor_km":42164.622350053,"source":"CELESTRAK","updated_at":"2026-09-20T09:00:35.219225Z"}}